sat.trackr.live / text

‹ back to catalog

STARLINK-35154

NORAD 65612 · 2025-207W

PAYLOAD ACTIVE UNKNOWN

§ Identity

Operator
Country
US
Launch date
2025-09-13
Launch site
AFWTR
Launch vehicle
Mass (kg)
RCS (m²)

Purposes: comms

External: N2YO · Heavens-Above · Gunter

§ Orbital elements

Epoch: 2026-09-20T22:00:03.000096Z

Period
93.91 min
Inclination
97.2860°
Eccentricity
0.0001677
Mean motion
15.33408086 rev/d
Perigee alt
464.5 km
Apogee alt
466.8 km
Semi-major
6,843.8 km
B*
-6.2180e-5
RAAN
326.4426°
Arg perigee
87.0085°
Mean anomaly
208.4826°
Rev number
574

§ Raw data

STARLINK-351541 65612U 25207W   26263.91670139 -.00002080  00000+0 -62180-4 0  99932 65612  97.2860 326.4426 0001677  87.0085 208.4826 15.33408086  5744

JSON: /api/v1/satellites/65612 · /tle

For live sub-satellite position, see the globe view (requires WebGL).

§ Visibility from observer

Set your observer location to see the next 7 days of passes ≥ 10°. The values pass through the URL so the page stays shareable.

No JS? Fill the form by hand. The geolocation button needs JavaScript.